Edwards AFB North Base, CA

12:30 AM PST on December 12, 2019 (GMT -0800)
Edwards AFB North Base

Weather History for K9L2 - May, 2019

Change the Weather History Date:

Thursday, May 23, 2019

  Actual Average (WUND) Record (WUND)
Temperature  
Mean Temperature 55 °F -  
Max Temperature 63 °F - - (-1)
Min Temperature 48 °F - - (-1)
Degree Days  
Heating Degree Days 10    
Growing Degree Days 5 (Base 50)    
Moisture  
Dew Point 45 °F    
Average Humidity 69    
Maximum Humidity 88    
Minimum Humidity 53    
Precipitation  
Precipitation 0.06 in - - ()
Sea Level Pressure  
Sea Level Pressure 29.86 in    
Wind  
Wind Speed 12 mph ()    
Max Wind Speed 24 mph    
Max Gust Speed 31 mph    
Visibility 8.7 miles    
Events Rain    
Averages and records for this station are not official NWS values.
T = Trace of Precipitation, MM = Missing Value Source: Averaged Metar Reports

Daily Weather History Graph

Daily Weather History Graph

Search for Another Location

Airport or City:

Astronomy

May. 23, 2019 Rise Set
Actual Time 5:42 AM PDT 7:54 PM PDT
Civil Twilight 5:14 AM PDT 8:22 PM PDT
Nautical Twilight 4:39 AM PDT 8:57 PM PDT
Astronomical Twilight 4:01 AM PDT 9:35 PM PDT
Moon No Moon Rise 9:51 AM PDT (5/23)
Length of Visible Light 15h 08m
Length of Day
14h 11m
Waning Gibbous, 76% of the Moon is Illuminated
May 23
Waning Gibbous
May 26
Last Quarter
Jun 3
New
Jun 9
First Quarter
Jun 17
Full

Hourly Weather History & Observations

Time (PDT) Temp. Dew Point Humidity Pressure Visibility Wind Dir Wind Speed Gust Speed Precip Events Conditions
12:13 AM 51.8 °F 39.2 °F 62% 29.75 in 10.0 mi South 8.1 mph - N/A   Scattered Clouds
12:58 AM 50.5 °F 38.8 °F 64% 29.76 in 10.0 mi SSE 10.4 mph - N/A   Clear
1:58 AM 48.7 °F 39.0 °F 69% 29.76 in 10.0 mi SSE 6.9 mph - N/A   Clear
2:58 AM 49.8 °F 39.7 °F 68% 29.76 in 10.0 mi Calm Calm - N/A   Overcast
3:58 AM 51.4 °F 40.6 °F 67% 29.74 in 10.0 mi WSW 4.6 mph - N/A   Mostly Cloudy
4:58 AM 54.0 °F 41.2 °F 62% 29.74 in 10.0 mi SSW 3.5 mph - N/A   Overcast
5:58 AM 53.2 °F 42.3 °F 66% 29.75 in 10.0 mi SW 11.5 mph - N/A   Mostly Cloudy
6:58 AM 52.5 °F 42.3 °F 68% 29.77 in 9.0 mi SSW 12.7 mph 20.7 mph N/A   Mostly Cloudy
7:58 AM 53.8 °F 43.2 °F 67% 29.79 in 9.0 mi SSW 19.6 mph 24.2 mph N/A   Scattered Clouds
8:05 AM 53.6 °F 42.8 °F 67% 29.79 in 8.0 mi SSW 17.3 mph 23.0 mph N/A Rain Light Rain
8:14 AM 53.6 °F 42.8 °F 67% 29.79 in 9.0 mi SW 16.1 mph 27.6 mph N/A   Scattered Clouds
8:44 AM 53.6 °F 44.6 °F 72% 29.81 in 10.0 mi SW 19.6 mph 25.3 mph N/A   Mostly Cloudy
8:53 AM 51.8 °F 44.6 °F 76% 29.82 in 7.0 mi SSW 16.1 mph - N/A Rain Light Rain
8:58 AM 52.5 °F 45.7 °F 78% 29.82 in 7.0 mi SSW 15.0 mph - 0.00 in Rain Light Rain
9:28 AM 51.8 °F 46.4 °F 82% 29.84 in 6.0 mi SSW 13.8 mph - N/A Rain Light Rain
9:43 AM 51.8 °F 46.4 °F 82% 29.86 in 7.0 mi SSW 15.0 mph 21.9 mph N/A Rain Light Rain
9:58 AM 51.8 °F 46.9 °F 83% 29.86 in 7.0 mi SSW 16.1 mph - 0.03 in Rain Light Rain
10:04 AM 51.8 °F 48.2 °F 88% 29.86 in 7.0 mi SSW 17.3 mph 21.9 mph N/A   Overcast
10:58 AM 54.9 °F 47.1 °F 75% 29.86 in 8.0 mi SSW 17.3 mph - 0.02 in   Mostly Cloudy
11:28 AM 57.2 °F 46.4 °F 67% 29.86 in 10.0 mi SSW 18.4 mph 23.0 mph N/A   Scattered Clouds
11:43 AM 59.0 °F 46.4 °F 63% 29.86 in 9.0 mi SSW 16.1 mph 21.9 mph N/A   Mostly Cloudy
11:58 AM 59.4 °F 45.9 °F 61% 29.86 in 10.0 mi SSW 17.3 mph 23.0 mph N/A   Scattered Clouds
12:58 PM 59.7 °F 45.7 °F 60% 29.86 in 10.0 mi SSW 17.3 mph 27.6 mph N/A   Partly Cloudy
1:58 PM 62.6 °F 45.5 °F 54% 29.87 in 10.0 mi SSW 18.4 mph 25.3 mph N/A   Partly Cloudy
2:58 PM 61.9 °F 45.0 °F 54% 29.86 in 9.0 mi SSW 17.3 mph 27.6 mph N/A   Scattered Clouds
3:58 PM 62.2 °F 45.0 °F 53% 29.87 in 9.0 mi SSW 21.9 mph 31.1 mph N/A   Partly Cloudy
4:58 PM 60.4 °F 45.1 °F 57% 29.87 in 9.0 mi SSW 23.0 mph 29.9 mph N/A   Scattered Clouds
5:13 PM 60.8 °F 44.6 °F 55% 29.88 in 8.0 mi SSW 21.9 mph 31.1 mph N/A   Mostly Cloudy
5:32 PM 59.0 °F 46.4 °F 63% 29.88 in 7.0 mi SSW 19.6 mph 29.9 mph N/A Rain Light Rain
5:54 PM 59.0 °F 44.6 °F 59% 29.88 in 8.0 mi SSW 24.2 mph 29.9 mph N/A   Mostly Cloudy
5:58 PM 58.3 °F 45.0 °F 61% 29.88 in 8.0 mi SSW 23.0 mph 29.9 mph 0.00 in   Mostly Cloudy
6:28 PM 57.2 °F 44.6 °F 63% 29.89 in 9.0 mi SSW 18.4 mph 27.6 mph N/A   Scattered Clouds
6:43 PM 57.2 °F 44.6 °F 63% 29.89 in 8.0 mi SSW 21.9 mph 28.8 mph N/A   Mostly Cloudy
6:58 PM 56.8 °F 44.6 °F 64% 29.89 in 9.0 mi SW 20.7 mph 25.3 mph N/A   Mostly Cloudy
7:19 PM 55.4 °F 44.6 °F 67% 29.90 in 8.0 mi SW 18.4 mph 27.6 mph N/A Rain Light Rain
7:34 PM 55.4 °F 46.4 °F 72% 29.91 in 7.0 mi SW 20.7 mph 26.5 mph N/A Rain Light Rain
7:49 PM 53.6 °F 46.4 °F 77% 29.93 in 7.0 mi SW 16.1 mph 21.9 mph N/A Rain Light Rain
7:58 PM 53.6 °F 46.9 °F 78% 29.93 in 6.0 mi SSW 11.5 mph 21.9 mph 0.00 in Rain Light Rain
8:13 PM 53.6 °F 46.4 °F 77% 29.93 in 7.0 mi SW 15.0 mph - N/A Rain Light Rain
8:45 PM 53.6 °F 46.4 °F 77% 29.93 in 10.0 mi SSW 11.5 mph - N/A   Mostly Cloudy
8:58 PM 53.1 °F 46.4 °F 78% 29.93 in 10.0 mi SSW 11.5 mph - 0.01 in   Mostly Cloudy
9:58 PM 52.5 °F 45.9 °F 78% 29.95 in 10.0 mi SSW 11.5 mph 19.6 mph N/A   Scattered Clouds
10:43 PM 51.8 °F 46.4 °F 82% 29.96 in 10.0 mi South 13.8 mph 18.4 mph N/A   Mostly Cloudy
10:58 PM 52.0 °F 45.7 °F 79% 29.96 in 10.0 mi South 11.5 mph - N/A   Mostly Cloudy
11:58 PM 51.6 °F 45.3 °F 79% 29.95 in 10.0 mi South 11.5 mph - N/A   Overcast